User: anonymous   Login
Location: Unspecified
(0.0000°N, 0.0000°E)
Time: 03:49:58
(UTC+00:00)
Language:

IRS-1B - Orbit

View from above orbital plane
View from above orbital plane
View from above satellite
View from above satellite

Ground track
Ground track

The orbit data is extracted from the following two-line orbital elements,

1 21688U 91061A   18292.83958476  .00000056  00000-0  71438-4 0  9992
2 21688  99.0857 234.3129 0025477  75.9913 341.8507 13.97321318278023
Epoch (UTC): 19 October 2018 20:09:00
Eccentricity: 0.0025477
inclination: 99.0857°
perigee height: 884 km
apogee height: 921 km
right ascension of ascending node: 234.3129°
argument of perigee: 75.9913°
revolutions per day: 13.97321318
mean anomaly at epoch: 341.8507°
orbit number at epoch: 27802

The dashed part of the orbit path shows where the satellite is in the earth's shadow,  

DLR